Regional Weather Roundup
Issued by NWS

Home | Current Version | Previous Version | Graphics & Text | Print | Product List | Glossary Off
Versions: 1 2 3 4 5 6 7 8 9 10 11 12 13 14 15 16 17 18 19 20 21 22 23 24 25 26 27 28 29 30 31 32 33 34 35 36 37 38 39 40 41 42 43 44 45 46 47 48 49 50

000
ASUS43 KDMX 011306
RWRIA

WEATHER ROUNDUP FOR IOWA
NATIONAL WEATHER SERVICE DES MOINES IA
700 AM CST WED MAR 01 2017

NOTE: "FAIR" INDICATES FEW OR NO CLOUDS BELOW 12,000 FEET WITH NO
SIGNIFICANT WEATHER AND/OR OBSTRUCTIONS TO VISIBILITY.

* - THESE STATIONS ARE NOT NWS STATIONS...THUS NOT UNDER NWS
QUALITY CONTROL.  THEY ALSO DO NOT REPORT WEATHER SUCH
AS PRECIPITATION OR FOG.

IAZ001>003-012>014-020>022-031>034-043>046-011400-
   NORTHWEST IOWA

CITY           SKY/WX    TMP DP  RH WIND       PRES   REMARKS
CARROLL *      CLOUDY    34  34 100 NW21G26   29.82R WCI  22
CHEROKEE *     LGT SNOW  30  30 100 NW10G16   29.87R VSB 1   WCI  21
DENISON *      FLURRIES  32  30  93 NW18G29   29.85R WCI  20
LE MARS *      LGT SNOW  28  27  93 NW18G25   29.91R WCI  16
SHELDON *      LGT SNOW  28  28 100 NW17      29.86R VSB 1   WCI  16
SIOUX CITY     CLOUDY    31  26  82 NW23      29.91R WCI  18
SPENCER        CLOUDY    30  27  88 NW18G25   29.84R WCI  18
STORM LAKE *   LGT SNOW  30  30 100 NW20      29.83R VSB 3/4 WCI  18
$$

IAZ055>058-069>071-079>083-090>094-011400-
   SOUTHWEST IOWA

CITY           SKY/WX    TMP DP  RH WIND       PRES   REMARKS
ATLANTIC *     CLOUDY    32  32 100 NW21G28   29.87R WCI  20
AUDUBON *      CLOUDY    32  30  93 NW13G22   29.85R WCI  22
CLARINDA *     CLOUDY    36  32  87 NW17G26   29.92R WCI  25
COUNCIL BLFS * MIX PCPN  32  32 100 NW14G22   29.91R WCI  22
CRESTON *      CLOUDY    34  32  93 NW21G29   29.84R WCI  22
HARLAN  *      FLURRIES  32  32 100 NW20G30   29.91R WCI  20
LAMONI         CLOUDY    35  32  88 NW25G31   29.84R WCI  23
RED OAK *      CLOUDY    34  30  86 W18G24    29.89R WCI  23
SHENANDOAH *   CLOUDY    34  30  86 NW13      29.93R WCI  25
$$

IAZ047>049-059>061-072>074-084-011400-
   CENTRAL IOWA

CITY           SKY/WX    TMP DP  RH WIND       PRES   REMARKS
AMES           CLOUDY    34  33  96 NW17G26   29.77R WCI  23
ANKENY *       CLOUDY    36  32  87 NW18G30   29.79R WCI  25
BOONE *        CLOUDY    34  34 100 NW21G28   29.77R WCI  22
CHARITON *     CLOUDY    36  32  87 NW20G35   29.79R WCI  25
DES MOINES     DRIZZLE   36  33  89 NW21G32   29.79R WCI  25
GRINNELL*      CLOUDY    34  32  93 NW20G29   29.74R WCI  22
KNOXVILLE *    MIX PCPN  36  34  93 NW22G28   29.75R WCI  24
MARSHALLTOWN   CLOUDY    33  31  92 NW24G31   29.72R WCI  20
NEWTON *       CLOUDY    34  32  93 NW18G29   29.74R WCI  23
PELLA *        CLOUDY    35  33  91 NW17G24   29.77R WCI  25
PERRY *        CLOUDY    35  33  93 NW16G28   29.81R WCI  25
$$

IAZ004>006-015-016-023>025-035-036-011400-
   NORTH CENTRAL IOWA

CITY           SKY/WX    TMP DP  RH WIND       PRES   REMARKS
ALGONA *       CLOUDY    32  28  86 N21G30    29.79R WCI  20
CLARION *      CLOUDY    32  32 100 NW23G30   29.76R WCI  19
ESTHERVILLE    CLOUDY    30  28  92 N14       29.80R WCI  19
FORT DODGE *   CLOUDY    32  27  80 NW15G23   29.80R WCI  22
MASON CITY     LGT SNOW  29  27  92 NW20      29.74R FOG     WCI  16
FOREST CITY *  CLOUDY    30  30 100 N18G24    29.75R WCI  18
WEBSTER CITY * FLURRIES  32  30  93 NW21      29.75R WCI  20
IOWA FALLS *   FLURRIES  33  31  94 NW21      29.74R WCI  21
$$

IAZ007>011-017>019-026>030-037>042-050>054-066-011400-
   NORTHEAST IOWA

CITY           SKY/WX    TMP DP  RH WIND       PRES   REMARKS
CEDAR RAPIDS   CLOUDY    34  34 100 NW22      29.65R FOG     WCI  22
CHARLES CITY * LGT SNOW  32  32 100 NW21G29   29.69R WCI  20
CLINTON *      LGT RAIN  41  39  93 NW15      29.57R
DECORAH *      LGT SNOW  32  30  93 NW16G23   29.62S VSB 1   WCI  21
DUBUQUE        CLOUDY    37  36  96 N13       29.56R WCI  29
MONTICELLO *   CLOUDY    37  36  93 NW23      29.60R WCI  26
OELWEIN *      CLOUDY    34  34 100 NW18      29.65R WCI  23
WATERLOO       CLOUDY    33  30  88 NW16      29.68R WCI  23
$$

IAZ064-065-067-068-078-011400-
   EAST CENTRAL IOWA

CITY           SKY/WX    TMP DP  RH WIND       PRES   REMARKS
DAVENPORT      LGT RAIN  39  37  92 W22G29    29.59R WCI  29
IOWA CITY      CLOUDY    38  34  85 NW18G30   29.68R WCI  28
MUSCATINE *    CLOUDY    39  36  87 W21G29    29.66R WCI  29
QUAD CITIES    CLOUDY    41  38  89 W18G28    29.59R FOG
$$

IAZ062-063-075>077-085>089-095>099-011400-
   SOUTHEAST IOWA

CITY           SKY/WX    TMP DP  RH WIND       PRES   REMARKS
BURLINGTON     CLOUDY    41  38  89 W17G28    29.67R
FAIRFIELD *    CLOUDY    37  34  87 NW22G30   29.71R WCI  27
FORT MADISON * CLOUDY    39  37  93 NW20G29   29.70R WCI  30
KEOKUK *       CLOUDY    43  37  81 W20G28    29.70R
OTTUMWA        CLOUDY    37  35  92 W18       29.74R WCI  27
WASHINGTON *   CLOUDY    37  36  93 W28G33    29.70R WCI  25
$$

ABBREVIATIONS USED IN REMARKS
   TC - TEMPERATURES IN CELSIUS
  WCI - WIND CHILL INDEX
   HX - HEAT INDEX
  VSB - VISIBILITY
$$




USA.gov is the U.S. government's official web portal to all federal, state and local government web resources and services.